This is the latest recevied weather packets stored in our database for station/object KB1QVF. If no packets are shown the sender has not sent any weather packets the latest 10 day(s).
| Time | Temp. | Humidity | Pressure | Rain* | Wind** | Luminosity | Snow |
|---|---|---|---|---|---|---|---|
| 1777869987 | 5° C | 56% | 1013.5 hPa | 0 mm | - | 0 W/m² | - |
| 1777869684 | 5° C | 56% | 1013.6 hPa | 0 mm | - | 0 W/m² | - |
| 1777869381 | 5° C | 54% | 1013.5 hPa | 0 mm | - | 0 W/m² | - |
| 1777869078 | 5° C | 55% | 1013.4 hPa | 0 mm | - | 0 W/m² | - |
| 1777868775 | 5° C | 55% | 1013.3 hPa | 0 mm | - | 0 W/m² | - |
| 1777868472 | 5° C | 54% | 1013.4 hPa | 0 mm | - | 0 W/m² | - |
| 1777868167 | 5.56° C | 55% | 1013.4 hPa | 0 mm | - | 0 W/m² | - |
| 1777867864 | 5.56° C | 53% | 1013.3 hPa | 0 mm | - | 0 W/m² | - |
| 1777867562 | 5° C | 55% | 1013.3 hPa | 0 mm | - | 0 W/m² | - |
| 1777867258 | 5° C | 55% | 1013.3 hPa | 0 mm | - | 0 W/m² | - |
| 1777866955 | 5° C | 56% | 1013.2 hPa | 0 mm | - | 0 W/m² | - |
| 1777866651 | 5.56° C | 54% | 1013 hPa | 0 mm | - | 0 W/m² | - |
| 1777866349 | 5° C | 56% | 1013 hPa | 0 mm | - | 0 W/m² | - |
| 1777866046 | 4.44° C | 59% | 1012.9 hPa | 0 mm | - | 0 W/m² | - |
| 1777865744 | 4.44° C | 60% | 1013.1 hPa | 0 mm | - | 0 W/m² | - |
| 1777865441 | 3.89° C | 60% | 1013.1 hPa | 0 mm | - | 0 W/m² | - |
| 1777865138 | 3.89° C | 64% | 1013.1 hPa | 0 mm | - | 0 W/m² | - |
| 1777864835 | 3.89° C | 63% | 1013.1 hPa | 0 mm | - | 0 W/m² | - |
| 1777864532 | 3.33° C | 64% | 1012.9 hPa | 0 mm | - | 0 W/m² | - |
| 1777864228 | 3.33° C | 66% | 1013 hPa | 0 mm | - | 0 W/m² | - |
| 1777863925 | 3.33° C | 64% | 1012.9 hPa | 0 mm | - | 0 W/m² | - |
| 1777863621 | 3.33° C | 65% | 1012.8 hPa | 0 mm | - | 0 W/m² | - |
| 1777863318 | 3.33° C | 65% | 1012.6 hPa | 0 mm | - | 0 W/m² | - |
| 1777863015 | 3.33° C | 62% | 1012.8 hPa | 0 mm | - | 0 W/m² | - |
| 1777862712 | 3.33° C | 63% | 1012.6 hPa | 0 mm | - | 0 W/m² | - |
* Rain latest hour (hover to see other rain measurements)
** Current wind speed in m/s (hover to see current wind gust speed)